KLM248 KATL-EHAM

Flight info

Callsign KLM248
Flight time 7h 52m
Altitude 35000
Route SMKEY2 BOBBD Q71 PSB J49 ALB DCT BRADD N175G PORTI/M084F370 DCT 47N050W 49N040W 51N030W 53N020W DCT MALOT DCT GISTI/N0484F370 DCT LIFFY UL975 WAL M16 DOLAS L603 LAMSO
Aircraft B77W/H-SDE1E2E3FGHIJ2J3J4J5M1RWXY/LB1D1

Departure

Time 2026-05-05 09:50
Airport Hartsfield Jackson Atlanta International Airport (KATL)

Arrival

Time 2026-05-05 17:42
Airport Amsterdam Airport Schiphol (EHAM)
Time Latitude Longitude Altitude Speed Heading
2026-05-05 09:34 33.63740 -84.41923 1011 ft 0 kts 272°
2026-05-05 09:40 33.63739 -84.41914 1011 ft 4 kts 272°
2026-05-05 09:41 33.63738 -84.41882 1011 ft 4 kts 266°
2026-05-05 09:41 33.63744 -84.41852 1011 ft 4 kts 239°
2026-05-05 09:41 33.63761 -84.41830 1011 ft 4 kts 200°
2026-05-05 09:41 33.63778 -84.41826 1012 ft 1 kts 180°
2026-05-05 09:44 33.63775 -84.41826 1011 ft 3 kts 180°
2026-05-05 09:44 33.63723 -84.41826 1011 ft 9 kts 180°
2026-05-05 09:45 33.63662 -84.41808 1011 ft 10 kts 154°
2026-05-05 09:45 33.63601 -84.41777 1011 ft 10 kts 146°
2026-05-05 09:45 33.63580 -84.41707 1011 ft 10 kts 88°
2026-05-05 09:45 33.63581 -84.41627 1011 ft 10 kts 90°
2026-05-05 09:46 33.63581 -84.41539 1010 ft 12 kts 90°
2026-05-05 09:46 33.63581 -84.41429 1010 ft 14 kts 90°
2026-05-05 09:46 33.63581 -84.41301 1010 ft 16 kts 90°
2026-05-05 09:46 33.63581 -84.41160 1011 ft 18 kts 90°
2026-05-05 09:47 33.63581 -84.41004 1011 ft 19 kts 90°
2026-05-05 09:47 33.63580 -84.40851 1011 ft 11 kts 90°
2026-05-05 09:47 33.63561 -84.40770 1012 ft 11 kts 135°
2026-05-05 09:47 33.63492 -84.40764 1012 ft 11 kts 215°
2026-05-05 09:48 33.63473 -84.40827 1012 ft 0 kts 265°
2026-05-05 09:49 33.63469 -84.40961 1012 ft 54 kts 270°
2026-05-05 09:49 33.63471 -84.41843 1012 ft 156 kts 270°
2026-05-05 09:49 33.63471 -84.43471 1394 ft 217 kts 270°
2026-05-05 09:50 33.63481 -84.45314 2692 ft 225 kts 267°
2026-05-05 09:50 33.63483 -84.47235 3278 ft 237 kts 267°
2026-05-05 09:50 33.63480 -84.49258 3888 ft 247 kts 268°
2026-05-05 09:50 33.63516 -84.51335 4558 ft 252 kts 275°
2026-05-05 09:51 33.64200 -84.53358 4933 ft 275 kts 310°
2026-05-05 09:51 33.65706 -84.54772 5668 ft 277 kts 323°
2026-05-05 09:51 33.67280 -84.56115 6525 ft 277 kts 319°
2026-05-05 09:51 33.68792 -84.57534 7270 ft 278 kts 328°
2026-05-05 09:52 33.70664 -84.58211 7856 ft 288 kts 355°
2026-05-05 09:52 33.72675 -84.58184 8501 ft 292 kts 359°
2026-05-05 09:52 33.74718 -84.58149 9259 ft 295 kts 358°
2026-05-05 09:52 33.76780 -84.58124 10045 ft 297 kts 358°
2026-05-05 09:53 33.78873 -84.58101 10576 ft 309 kts 358°
2026-05-05 09:53 33.81099 -84.57956 10699 ft 332 kts 10°
2026-05-05 09:53 33.83298 -84.56859 10858 ft 354 kts 28°
2026-05-05 09:53 33.85504 -84.55333 11033 ft 378 kts 29°
2026-05-05 09:54 33.87823 -84.53730 11577 ft 390 kts 28°
2026-05-05 09:54 33.90203 -84.52099 12323 ft 397 kts 28°
2026-05-05 09:54 33.92619 -84.50459 13220 ft 400 kts 27°
2026-05-05 09:54 33.95059 -84.48815 14115 ft 404 kts 27°
2026-05-05 09:55 33.97526 -84.47161 14944 ft 407 kts 27°
2026-05-05 09:55 34.00009 -84.45501 15748 ft 410 kts 27°
2026-05-05 09:55 34.02519 -84.43824 16548 ft 414 kts 26°
2026-05-05 09:55 34.05051 -84.42133 17351 ft 419 kts 26°
2026-05-05 09:56 34.07615 -84.40419 18120 ft 423 kts 26°
2026-05-05 09:56 34.10198 -84.38690 18817 ft 427 kts 26°
2026-05-05 09:56 34.12811 -84.36941 19457 ft 431 kts 26°
2026-05-05 09:56 34.15447 -84.35174 20140 ft 435 kts 26°
2026-05-05 09:57 34.18102 -84.33392 20798 ft 439 kts 25°
2026-05-05 09:57 34.20781 -84.31593 21460 ft 442 kts 25°
2026-05-05 09:57 34.23481 -84.29779 22090 ft 446 kts 25°
2026-05-05 09:57 34.26211 -84.27945 22680 ft 452 kts 25°
2026-05-05 09:58 34.29005 -84.26160 23215 ft 455 kts 19°
2026-05-05 09:58 34.32014 -84.25088 23768 ft 450 kts
2026-05-05 09:58 34.35100 -84.24448 24379 ft 450 kts
2026-05-05 09:58 34.38195 -84.23837 24964 ft 451 kts
2026-05-05 09:59 34.41296 -84.23199 25521 ft 453 kts
2026-05-05 09:59 34.44374 -84.22529 26030 ft 456 kts
2026-05-05 09:59 34.47545 -84.21809 26541 ft 459 kts
2026-05-05 09:59 34.50648 -84.21085 27047 ft 461 kts
2026-05-05 10:00 34.53803 -84.20341 27545 ft 463 kts
2026-05-05 10:00 34.56968 -84.19592 28040 ft 465 kts
2026-05-05 10:00 34.60153 -84.18838 28489 ft 468 kts
2026-05-05 10:00 34.63367 -84.18082 28773 ft 473 kts
2026-05-05 10:01 34.66604 -84.17320 29145 ft 475 kts
2026-05-05 10:01 34.69858 -84.16550 29568 ft 477 kts
2026-05-05 10:01 34.73116 -84.15778 29996 ft 477 kts
2026-05-05 10:01 34.76373 -84.15008 30394 ft 477 kts
2026-05-05 10:02 34.79619 -84.14187 30879 ft 475 kts
2026-05-05 10:02 34.82833 -84.13299 31425 ft 471 kts
2026-05-05 10:02 34.86014 -84.12390 31953 ft 468 kts
2026-05-05 10:02 34.89189 -84.11482 32238 ft 470 kts
2026-05-05 10:03 34.92369 -84.10577 32580 ft 469 kts
2026-05-05 10:03 34.95541 -84.09679 33046 ft 466 kts
2026-05-05 10:03 34.98684 -84.08794 33571 ft 461 kts
2026-05-05 10:03 35.01795 -84.07921 34055 ft 458 kts
2026-05-05 10:04 35.04892 -84.07055 34404 ft 456 kts
2026-05-05 10:04 35.07978 -84.06194 34704 ft 454 kts
2026-05-05 10:04 35.11059 -84.05335 34925 ft 455 kts
2026-05-05 10:04 35.14167 -84.04471 34967 ft 460 kts
2026-05-05 10:05 35.19362 -84.03021 35029 ft 460 kts
2026-05-05 10:05 35.25553 -84.01275 35025 ft 454 kts
2026-05-05 10:06 35.31704 -83.99541 35033 ft 453 kts
2026-05-05 10:06 35.37858 -83.97815 35015 ft 455 kts
2026-05-05 10:07 35.44042 -83.96075 34992 ft 457 kts
2026-05-05 10:07 35.50254 -83.94320 34946 ft 459 kts
2026-05-05 10:08 35.56489 -83.92554 34958 ft 461 kts
2026-05-05 10:08 35.62744 -83.90780 34983 ft 462 kts
2026-05-05 10:09 35.69022 -83.89000 34975 ft 464 kts
2026-05-05 10:09 35.75333 -83.87201 34968 ft 467 kts
2026-05-05 10:10 35.81621 -83.85052 34943 ft 479 kts 18°
2026-05-05 10:10 35.87512 -83.81045 34971 ft 486 kts 23°
2026-05-05 10:11 35.93344 -83.76815 34977 ft 486 kts 23°
2026-05-05 10:11 35.99210 -83.72682 34980 ft 485 kts 22°
2026-05-05 10:12 36.05092 -83.68627 34961 ft 484 kts 22°
2026-05-05 10:12 36.10966 -83.64596 34959 ft 483 kts 22°
2026-05-05 10:13 36.16834 -83.60558 34935 ft 482 kts 22°
2026-05-05 10:13 36.22651 -83.56541 34934 ft 482 kts 22°
2026-05-05 10:14 36.28500 -83.52496 34947 ft 481 kts 23°
2026-05-05 10:14 36.34380 -83.48422 34951 ft 480 kts 24°
2026-05-05 10:15 36.40169 -83.44401 34938 ft 479 kts 24°
2026-05-05 10:15 36.45978 -83.40359 34949 ft 478 kts 24°
2026-05-05 10:16 36.51772 -83.36323 34932 ft 477 kts 24°
2026-05-05 10:16 36.57550 -83.32291 34935 ft 476 kts 24°
2026-05-05 10:17 36.63335 -83.28248 34927 ft 477 kts 24°
2026-05-05 10:17 36.69122 -83.24196 34932 ft 478 kts 24°
2026-05-05 10:18 36.74845 -83.20181 34931 ft 478 kts 24°
2026-05-05 10:18 36.80650 -83.16101 34933 ft 479 kts 24°
2026-05-05 10:19 36.86468 -83.12004 34923 ft 481 kts 24°
2026-05-05 10:19 36.92267 -83.07826 34935 ft 484 kts 28°
2026-05-05 10:20 36.97431 -83.02392 34903 ft 494 kts 41°
2026-05-05 10:20 37.01741 -82.95677 34937 ft 498 kts 48°
2026-05-05 10:21 37.05916 -82.88772 34934 ft 497 kts 47°
2026-05-05 10:21 37.10143 -82.81917 34966 ft 497 kts 47°
2026-05-05 10:22 37.14291 -82.74979 34964 ft 497 kts 48°
2026-05-05 10:22 37.18412 -82.68027 34946 ft 497 kts 48°
2026-05-05 10:23 37.22534 -82.61080 34944 ft 496 kts 48°
2026-05-05 10:23 37.26653 -82.54141 34931 ft 496 kts 48°
2026-05-05 10:24 37.30774 -82.47193 34916 ft 496 kts 48°
2026-05-05 10:24 37.34885 -82.40241 34918 ft 495 kts 48°
2026-05-05 10:25 37.38994 -82.33281 34912 ft 496 kts 49°
2026-05-05 10:25 37.43097 -82.26309 34918 ft 496 kts 49°
2026-05-05 10:26 37.47210 -82.19316 34913 ft 497 kts 48°
2026-05-05 10:26 37.51605 -82.13228 34911 ft 488 kts 37°
2026-05-05 10:27 37.56600 -82.08321 34910 ft 481 kts 29°
2026-05-05 10:27 37.62161 -82.03625 34902 ft 481 kts 28°
2026-05-05 10:28 37.67713 -81.98924 34898 ft 481 kts 28°
2026-05-05 10:28 37.73217 -81.94205 34898 ft 482 kts 29°
2026-05-05 10:29 37.78763 -81.89421 34897 ft 483 kts 29°
2026-05-05 10:29 37.84313 -81.84624 34882 ft 483 kts 29°
2026-05-05 10:30 37.89861 -81.79821 34898 ft 483 kts 29°
2026-05-05 10:30 37.95416 -81.75004 34894 ft 484 kts 29°
2026-05-05 10:31 38.00965 -81.70183 34874 ft 484 kts 29°
2026-05-05 10:31 38.06507 -81.65360 34891 ft 483 kts 29°
2026-05-05 10:32 38.12053 -81.60522 34887 ft 484 kts 29°
2026-05-05 10:32 38.17602 -81.55676 34874 ft 484 kts 29°
2026-05-05 10:33 38.23146 -81.50822 34882 ft 484 kts 29°
2026-05-05 10:33 38.28691 -81.45960 34886 ft 484 kts 29°
2026-05-05 10:34 38.34233 -81.41112 34890 ft 483 kts 29°
2026-05-05 10:34 38.39725 -81.36305 34876 ft 482 kts 29°
2026-05-05 10:35 38.45256 -81.31450 34872 ft 482 kts 30°
2026-05-05 10:35 38.50783 -81.26586 34885 ft 482 kts 30°
2026-05-05 10:36 38.56300 -81.21700 34870 ft 483 kts 30°
2026-05-05 10:36 38.61817 -81.16801 34860 ft 483 kts 30°
2026-05-05 10:37 38.67335 -81.11894 34861 ft 483 kts 30°
2026-05-05 10:37 38.72849 -81.06985 34861 ft 483 kts 30°
2026-05-05 10:38 38.78362 -81.02065 34872 ft 483 kts 30°
2026-05-05 10:38 38.83887 -80.97125 34858 ft 485 kts 30°
2026-05-05 10:39 38.89423 -80.92166 34857 ft 486 kts 30°
2026-05-05 10:39 38.94971 -80.87185 34855 ft 487 kts 30°
2026-05-05 10:40 39.00471 -80.82107 34850 ft 489 kts 35°
2026-05-05 10:40 39.05357 -80.75954 34850 ft 494 kts 44°
2026-05-05 10:41 39.09900 -80.69309 34848 ft 494 kts 45°
2026-05-05 10:41 39.14448 -80.62673 34844 ft 494 kts 44°
2026-05-05 10:42 39.21305 -80.52761 34860 ft 494 kts 44°
2026-05-05 10:43 39.25880 -80.46150 34863 ft 494 kts 44°
2026-05-05 10:43 39.30451 -80.39525 34874 ft 494 kts 44°
2026-05-05 10:44 39.35021 -80.32887 34877 ft 494 kts 44°
2026-05-05 10:44 39.39556 -80.26282 34834 ft 495 kts 44°
2026-05-05 10:45 39.44119 -80.19623 34845 ft 495 kts 44°
2026-05-05 10:45 39.48688 -80.12943 34855 ft 496 kts 45°
2026-05-05 10:46 39.53259 -80.06244 34876 ft 497 kts 45°
2026-05-05 10:46 39.57840 -79.99531 34879 ft 498 kts 45°
2026-05-05 10:47 39.62431 -79.92791 34877 ft 498 kts 45°
2026-05-05 10:47 39.67017 -79.86042 34879 ft 499 kts 45°
2026-05-05 10:48 39.71601 -79.79278 34880 ft 499 kts 46°
2026-05-05 10:48 39.76187 -79.72497 34860 ft 500 kts 46°
2026-05-05 10:49 39.80770 -79.65704 34862 ft 499 kts 46°
2026-05-05 10:49 39.85349 -79.58905 34864 ft 499 kts 46°
2026-05-05 10:50 39.89918 -79.52103 34860 ft 499 kts 46°
2026-05-05 10:50 39.94485 -79.45291 34865 ft 499 kts 46°
2026-05-05 10:51 39.99015 -79.38519 34873 ft 499 kts 46°
2026-05-05 10:51 40.03581 -79.31676 34855 ft 500 kts 46°
2026-05-05 10:52 40.08151 -79.24813 34843 ft 501 kts 46°
2026-05-05 10:52 40.12716 -79.17942 34848 ft 501 kts 46°
2026-05-05 10:53 40.17297 -79.11080 34845 ft 501 kts 46°
2026-05-05 10:53 40.21916 -79.04263 34857 ft 501 kts 45°
2026-05-05 10:54 40.26536 -78.97441 34845 ft 501 kts 45°
2026-05-05 10:54 40.31142 -78.90606 34848 ft 500 kts 45°
2026-05-05 10:55 40.34959 -78.84921 34855 ft 500 kts 45°
2026-05-05 10:55 40.39549 -78.78071 34851 ft 500 kts 46°
2026-05-05 10:56 40.44131 -78.71219 34838 ft 499 kts 46°
2026-05-05 10:56 40.48707 -78.64361 34843 ft 499 kts 46°
2026-05-05 10:57 40.53270 -78.57504 34829 ft 498 kts 46°
2026-05-05 10:57 40.57823 -78.50648 34836 ft 497 kts 46°
2026-05-05 10:58 40.62373 -78.43783 34822 ft 497 kts 46°
2026-05-05 10:58 40.66909 -78.36923 34818 ft 497 kts 46°
2026-05-05 10:59 40.71438 -78.30056 34816 ft 496 kts 46°
2026-05-05 10:59 40.75962 -78.23186 34808 ft 496 kts 46°
2026-05-05 11:00 40.80485 -78.16297 34816 ft 497 kts 46°
2026-05-05 11:00 40.85014 -78.09383 34828 ft 498 kts 46°
2026-05-05 11:01 40.89543 -78.02457 34829 ft 499 kts 47°
2026-05-05 11:01 40.93641 -77.95042 34823 ft 503 kts 57°
2026-05-05 11:02 40.97149 -77.87036 34825 ft 503 kts 58°
2026-05-05 11:02 41.00655 -77.79009 34808 ft 504 kts 58°
2026-05-05 11:03 41.04199 -77.70994 34796 ft 504 kts 58°
2026-05-05 11:03 41.07755 -77.62973 34804 ft 505 kts 58°
2026-05-05 11:04 41.11304 -77.54941 34787 ft 505 kts 58°
2026-05-05 11:04 41.14849 -77.46891 34799 ft 505 kts 58°
2026-05-05 11:05 41.18368 -77.38880 34786 ft 506 kts 58°
2026-05-05 11:05 41.21912 -77.30794 34787 ft 506 kts 58°
2026-05-05 11:06 41.25448 -77.22705 34780 ft 507 kts 58°
2026-05-05 11:06 41.28980 -77.14602 34790 ft 507 kts 59°
2026-05-05 11:07 41.32507 -77.06488 34796 ft 506 kts 59°
2026-05-05 11:07 41.36026 -76.98369 34792 ft 506 kts 59°
2026-05-05 11:08 41.39536 -76.90252 34808 ft 506 kts 59°
2026-05-05 11:08 41.43042 -76.82120 34776 ft 506 kts 59°
2026-05-05 11:09 41.46465 -76.74160 34766 ft 507 kts 59°
2026-05-05 11:09 41.49726 -76.66555 34787 ft 507 kts 59°
2026-05-05 11:10 41.53225 -76.58378 34772 ft 508 kts 59°
2026-05-05 11:10 41.56735 -76.50178 34768 ft 508 kts 59°
2026-05-05 11:11 41.60238 -76.41980 34795 ft 508 kts 59°
2026-05-05 11:11 41.63741 -76.33755 34772 ft 509 kts 59°
2026-05-05 11:12 41.67240 -76.25515 34773 ft 510 kts 59°
2026-05-05 11:12 41.70729 -76.17259 34775 ft 510 kts 60°
2026-05-05 11:13 41.74198 -76.08984 34769 ft 509 kts 60°
2026-05-05 11:13 41.77660 -76.00708 34766 ft 509 kts 60°
2026-05-05 11:14 41.81120 -75.92426 34779 ft 509 kts 60°
2026-05-05 11:14 41.84566 -75.84194 34774 ft 510 kts 60°
2026-05-05 11:15 41.88035 -75.75891 34776 ft 510 kts 60°
2026-05-05 11:15 41.91496 -75.67577 34775 ft 510 kts 60°
2026-05-05 11:16 41.94951 -75.59252 34786 ft 510 kts 60°
2026-05-05 11:16 41.98387 -75.50910 34775 ft 510 kts 60°
2026-05-05 11:17 42.01813 -75.42564 34773 ft 510 kts 60°
2026-05-05 11:17 42.05233 -75.34215 34784 ft 509 kts 60°
2026-05-05 11:18 42.08796 -75.26011 34787 ft 507 kts 57°
2026-05-05 11:18 42.12546 -75.17971 34801 ft 507 kts 56°
2026-05-05 11:19 42.16300 -75.09938 34800 ft 507 kts 57°
2026-05-05 11:19 42.20028 -75.01866 34795 ft 507 kts 57°
2026-05-05 11:20 42.23740 -74.93767 34795 ft 508 kts 57°
2026-05-05 11:20 42.27450 -74.85644 34780 ft 509 kts 57°
2026-05-05 11:21 42.31162 -74.77501 34784 ft 509 kts 57°
2026-05-05 11:21 42.34873 -74.69341 34779 ft 510 kts 57°
2026-05-05 11:22 42.38584 -74.61157 34784 ft 511 kts 57°
2026-05-05 11:22 42.42299 -74.52942 34776 ft 512 kts 57°
2026-05-05 11:23 42.46012 -74.44708 34764 ft 513 kts 57°
2026-05-05 11:23 42.49722 -74.36458 34767 ft 513 kts 57°
2026-05-05 11:24 42.53430 -74.28189 34758 ft 513 kts 57°
2026-05-05 11:24 42.57130 -74.19914 34770 ft 513 kts 57°
2026-05-05 11:25 42.60807 -74.11670 34759 ft 514 kts 57°
2026-05-05 11:25 42.64498 -74.03370 34779 ft 514 kts 57°
2026-05-05 11:26 42.68186 -73.95052 34775 ft 514 kts 57°
2026-05-05 11:26 42.71859 -73.86721 34786 ft 514 kts 59°
2026-05-05 11:27 42.74608 -73.77762 34783 ft 516 kts 73°
2026-05-05 11:27 42.75910 -73.68180 34786 ft 515 kts 83°
2026-05-05 11:28 42.76689 -73.58494 34769 ft 514 kts 84°
2026-05-05 11:28 42.77469 -73.48831 34766 ft 513 kts 84°
2026-05-05 11:29 42.78282 -73.39183 34804 ft 513 kts 83°
2026-05-05 11:29 42.79106 -73.29545 34818 ft 512 kts 83°
2026-05-05 11:30 42.79925 -73.19913 34832 ft 512 kts 83°
2026-05-05 11:30 42.80731 -73.10267 34783 ft 513 kts 83°
2026-05-05 11:31 42.81531 -73.00599 34800 ft 514 kts 83°
2026-05-05 11:31 42.82323 -72.90923 34805 ft 514 kts 83°
2026-05-05 11:32 42.83106 -72.81244 34810 ft 514 kts 83°
2026-05-05 11:32 42.83883 -72.71554 34808 ft 515 kts 83°
2026-05-05 11:33 42.84652 -72.61860 34811 ft 515 kts 84°
2026-05-05 11:33 42.85406 -72.52238 34825 ft 514 kts 83°
2026-05-05 11:34 42.86156 -72.42561 34838 ft 513 kts 83°
2026-05-05 11:34 42.86900 -72.32868 34832 ft 514 kts 84°
2026-05-05 11:35 42.87635 -72.23163 34822 ft 515 kts 83°
2026-05-05 11:35 42.88364 -72.13449 34837 ft 515 kts 84°
2026-05-05 11:36 42.89084 -72.03730 34819 ft 516 kts 84°
2026-05-05 11:36 42.89796 -71.94003 34825 ft 515 kts 84°
2026-05-05 11:37 42.90500 -71.84275 34816 ft 515 kts 84°
2026-05-05 11:37 42.91196 -71.74544 34812 ft 515 kts 84°
2026-05-05 11:38 42.91883 -71.64811 34815 ft 515 kts 84°
2026-05-05 11:38 42.92562 -71.55083 34803 ft 516 kts 84°
2026-05-05 11:39 42.93234 -71.45336 34809 ft 516 kts 84°
2026-05-05 11:39 42.93897 -71.35599 34808 ft 515 kts 84°
2026-05-05 11:40 42.94551 -71.25861 34810 ft 515 kts 84°
2026-05-05 11:40 42.95197 -71.16125 34823 ft 515 kts 84°
2026-05-05 11:41 42.95834 -71.06394 34811 ft 515 kts 84°
2026-05-05 11:41 42.96459 -70.96731 34811 ft 514 kts 84°
2026-05-05 11:42 42.97078 -70.87006 34799 ft 514 kts 84°
2026-05-05 11:42 42.97591 -70.78865 34826 ft 513 kts 84°
2026-05-05 11:43 42.98195 -70.69156 34816 ft 513 kts 84°
2026-05-05 11:43 42.98790 -70.59447 34816 ft 513 kts 84°
2026-05-05 11:44 42.99353 -70.50132 34817 ft 513 kts 84°
2026-05-05 11:44 42.99932 -70.40426 34831 ft 513 kts 84°
2026-05-05 11:45 43.00503 -70.30719 34841 ft 513 kts 84°
2026-05-05 11:45 43.01065 -70.21013 34840 ft 513 kts 84°
2026-05-05 11:46 43.01619 -70.11307 34844 ft 512 kts 84°
2026-05-05 11:46 43.02161 -70.01665 34851 ft 512 kts 84°
2026-05-05 11:47 43.02699 -69.91961 34864 ft 512 kts 84°
2026-05-05 11:47 43.03227 -69.82261 34857 ft 512 kts 84°
2026-05-05 11:48 43.04005 -69.67709 34861 ft 512 kts 84°
2026-05-05 11:48 43.04513 -69.58011 34871 ft 512 kts 84°
2026-05-05 11:49 43.05014 -69.48304 34869 ft 511 kts 84°
2026-05-05 11:49 43.05505 -69.38616 34885 ft 511 kts 84°
2026-05-05 11:50 43.05988 -69.28921 34891 ft 511 kts 85°
2026-05-05 11:50 43.06462 -69.19229 34893 ft 511 kts 85°
2026-05-05 11:51 43.06929 -69.09538 34895 ft 511 kts 85°
2026-05-05 11:51 43.07385 -68.99892 34893 ft 512 kts 85°
2026-05-05 11:52 43.07836 -68.90174 34894 ft 512 kts 85°
2026-05-05 11:52 43.08279 -68.80452 34895 ft 512 kts 85°
2026-05-05 11:53 43.08714 -68.70722 34899 ft 512 kts 85°
2026-05-05 11:53 43.09141 -68.60990 34910 ft 512 kts 85°
2026-05-05 11:54 43.09560 -68.51253 34916 ft 512 kts 85°
2026-05-05 11:54 43.09970 -68.41527 34915 ft 512 kts 85°
2026-05-05 11:55 43.10371 -68.31796 34927 ft 513 kts 85°
2026-05-05 11:55 43.10766 -68.22058 34921 ft 513 kts 85°
2026-05-05 11:56 43.11151 -68.12313 34924 ft 513 kts 85°
2026-05-05 11:56 43.11529 -68.02570 34926 ft 513 kts 85°
2026-05-05 11:57 43.11896 -67.92888 34937 ft 513 kts 85°
2026-05-05 11:57 43.12259 -67.83080 34937 ft 512 kts 85°
2026-05-05 11:58 43.12611 -67.73344 34931 ft 512 kts 85°
2026-05-05 11:58 43.12953 -67.63669 34937 ft 512 kts 85°
2026-05-05 11:59 43.13289 -67.53939 34943 ft 512 kts 85°
2026-05-05 11:59 43.13617 -67.44194 34948 ft 513 kts 85°
2026-05-05 12:00 43.13936 -67.34431 34951 ft 513 kts 85°
2026-05-05 12:00 43.14249 -67.24669 34949 ft 513 kts 85°
2026-05-05 12:01 43.14553 -67.14909 34955 ft 514 kts 85°
2026-05-05 12:01 43.14934 -67.05146 34947 ft 512 kts 81°
2026-05-05 12:02 43.16399 -66.95664 34958 ft 508 kts 70°
2026-05-05 12:02 43.18924 -66.86681 34972 ft 504 kts 63°
2026-05-05 12:03 43.21672 -66.77825 34961 ft 505 kts 63°
2026-05-05 12:03 43.24403 -66.68929 34954 ft 506 kts 64°
2026-05-05 12:04 43.27101 -66.60002 34956 ft 507 kts 64°
2026-05-05 12:04 43.29780 -66.51056 34975 ft 507 kts 64°
2026-05-05 12:05 43.32458 -66.42081 34965 ft 508 kts 64°
2026-05-05 12:05 43.35112 -66.33164 34954 ft 508 kts 64°
2026-05-05 12:06 43.37781 -66.24163 34956 ft 508 kts 64°
2026-05-05 12:06 43.40443 -66.15159 34957 ft 508 kts 64°
2026-05-05 12:07 43.43097 -66.06150 34962 ft 508 kts 64°
2026-05-05 12:07 43.45746 -65.97125 34965 ft 509 kts 64°
2026-05-05 12:08 43.48387 -65.88097 34963 ft 508 kts 64°
2026-05-05 12:08 43.51020 -65.79063 34963 ft 508 kts 64°
2026-05-05 12:09 43.53646 -65.70018 34973 ft 508 kts 64°
2026-05-05 12:09 43.56268 -65.60957 34966 ft 509 kts 64°
2026-05-05 12:10 43.58884 -65.51886 34973 ft 509 kts 64°
2026-05-05 12:10 43.61494 -65.42800 34970 ft 510 kts 64°
2026-05-05 12:11 43.64098 -65.33702 34982 ft 510 kts 64°
2026-05-05 12:11 43.66698 -65.24585 34969 ft 510 kts 65°
2026-05-05 12:12 43.69273 -65.15522 34969 ft 510 kts 65°
2026-05-05 12:12 43.71859 -65.06388 34973 ft 510 kts 65°
2026-05-05 12:13 43.74437 -64.97251 34970 ft 510 kts 65°
2026-05-05 12:13 43.77010 -64.88095 34974 ft 510 kts 65°
2026-05-05 12:14 43.79573 -64.78941 34968 ft 510 kts 65°
2026-05-05 12:14 43.82126 -64.69786 34971 ft 510 kts 65°
2026-05-05 12:15 43.84674 -64.60620 34968 ft 510 kts 65°
2026-05-05 12:15 43.87210 -64.51462 34973 ft 509 kts 65°
2026-05-05 12:16 43.89741 -64.42285 34972 ft 509 kts 65°
2026-05-05 12:16 43.92261 -64.33116 34974 ft 509 kts 65°
2026-05-05 12:17 43.94771 -64.23949 34977 ft 509 kts 65°
2026-05-05 12:17 43.97278 -64.14759 34990 ft 509 kts 65°
2026-05-05 12:18 43.99776 -64.05566 34981 ft 509 kts 65°
2026-05-05 12:18 44.02270 -63.96353 34988 ft 509 kts 65°
2026-05-05 12:19 44.04755 -63.87136 34985 ft 510 kts 65°
2026-05-05 12:19 44.07235 -63.77905 34998 ft 510 kts 65°
2026-05-05 12:20 44.09708 -63.68665 34968 ft 510 kts 65°
2026-05-05 12:20 44.12177 -63.59404 34968 ft 511 kts 65°
2026-05-05 12:21 44.14640 -63.50127 34980 ft 511 kts 65°
2026-05-05 12:21 44.17081 -63.40900 34974 ft 511 kts 65°
2026-05-05 12:22 44.19529 -63.31608 34988 ft 512 kts 65°
2026-05-05 12:22 44.21977 -63.22284 34983 ft 512 kts 65°
2026-05-05 12:23 44.24415 -63.12957 34989 ft 512 kts 65°
2026-05-05 12:23 44.26848 -63.03612 34984 ft 513 kts 65°
2026-05-05 12:24 44.29276 -62.94249 34991 ft 513 kts 65°
2026-05-05 12:24 44.31697 -62.84878 34997 ft 513 kts 65°
2026-05-05 12:25 44.34111 -62.75495 34988 ft 513 kts 65°
2026-05-05 12:25 44.36516 -62.66114 34988 ft 513 kts 66°
2026-05-05 12:26 44.38915 -62.56715 34986 ft 513 kts 66°
2026-05-05 12:26 44.41306 -62.47310 34990 ft 513 kts 66°
2026-05-05 12:27 44.43691 -62.37892 34987 ft 514 kts 66°
2026-05-05 12:27 44.46068 -62.28465 34984 ft 514 kts 66°
2026-05-05 12:28 44.48437 -62.19029 34988 ft 514 kts 66°
2026-05-05 12:28 44.50784 -62.09647 35000 ft 514 kts 66°
2026-05-05 12:29 44.53142 -62.00182 34984 ft 514 kts 66°
2026-05-05 12:29 44.55490 -61.90715 34985 ft 514 kts 66°
2026-05-05 12:30 44.57832 -61.81235 34991 ft 514 kts 66°
2026-05-05 12:30 44.60165 -61.71752 34996 ft 514 kts 66°
2026-05-05 12:31 44.62491 -61.62257 34984 ft 515 kts 66°
2026-05-05 12:31 44.64811 -61.52745 34982 ft 515 kts 66°
2026-05-05 12:32 44.67124 -61.43226 34988 ft 515 kts 66°
2026-05-05 12:32 44.69054 -61.35252 34985 ft 515 kts 66°
2026-05-05 12:33 44.71354 -61.25708 34993 ft 516 kts 66°
2026-05-05 12:33 44.73635 -61.16210 34977 ft 516 kts 66°
2026-05-05 12:34 44.75924 -61.06632 34981 ft 517 kts 66°
2026-05-05 12:34 44.78205 -60.97048 34986 ft 517 kts 66°
2026-05-05 12:35 44.80481 -60.87445 35004 ft 518 kts 66°
2026-05-05 12:35 44.82753 -60.77813 34988 ft 518 kts 66°
2026-05-05 12:36 44.85018 -60.68169 34982 ft 519 kts 66°
2026-05-05 12:36 44.87276 -60.58512 34983 ft 519 kts 66°
2026-05-05 12:37 44.89526 -60.48849 34984 ft 519 kts 67°
2026-05-05 12:37 44.91772 -60.39161 34983 ft 519 kts 67°
2026-05-05 12:38 44.93995 -60.29532 34986 ft 519 kts 67°
2026-05-05 12:38 44.96223 -60.19835 34990 ft 520 kts 67°
2026-05-05 12:39 44.98446 -60.10119 34997 ft 520 kts 67°
2026-05-05 12:39 45.00661 -60.00394 34999 ft 521 kts 67°
2026-05-05 12:40 45.02873 -59.90636 34994 ft 522 kts 67°
2026-05-05 12:40 45.05080 -59.80858 34994 ft 522 kts 68°
2026-05-05 12:41 45.07281 -59.71061 34994 ft 523 kts 68°
2026-05-05 12:41 45.09476 -59.61245 35019 ft 523 kts 68°
2026-05-05 12:42 45.11667 -59.51405 34993 ft 525 kts 68°
2026-05-05 12:42 45.13853 -59.41537 34994 ft 525 kts 68°
2026-05-05 12:43 45.16032 -59.31655 34991 ft 526 kts 68°
2026-05-05 12:43 45.18207 -59.21747 34995 ft 527 kts 68°
2026-05-05 12:44 45.20379 -59.11809 35006 ft 528 kts 69°
2026-05-05 12:44 45.22545 -59.01848 34995 ft 529 kts 69°
2026-05-05 12:45 45.24708 -58.91849 34990 ft 530 kts 69°
2026-05-05 12:45 45.26862 -58.81850 34995 ft 530 kts 69°
2026-05-05 12:46 45.29010 -58.71828 35000 ft 531 kts 70°
2026-05-05 12:46 45.31151 -58.61789 34984 ft 531 kts 70°
2026-05-05 12:47 45.33282 -58.51750 34987 ft 530 kts 70°
2026-05-05 12:47 45.35402 -58.41710 34996 ft 530 kts 70°
2026-05-05 12:48 45.37514 -58.31661 35023 ft 530 kts 70°
2026-05-05 12:48 45.39621 -58.21590 34988 ft 531 kts 70°
2026-05-05 12:49 45.41719 -58.11512 34987 ft 531 kts 70°
2026-05-05 12:49 45.43803 -58.01448 34997 ft 530 kts 71°
2026-05-05 12:50 45.45865 -57.91438 35000 ft 530 kts 71°
2026-05-05 12:50 45.47932 -57.81360 35010 ft 531 kts 71°
2026-05-05 12:51 45.49993 -57.71258 34994 ft 531 kts 71°
2026-05-05 12:51 45.52046 -57.61143 34994 ft 531 kts 71°
2026-05-05 12:52 45.54089 -57.51023 34977 ft 531 kts 71°
2026-05-05 12:52 45.56124 -57.40898 35017 ft 531 kts 72°
2026-05-05 12:53 45.58153 -57.30744 34999 ft 532 kts 72°
2026-05-05 12:53 45.60178 -57.20562 34993 ft 533 kts 72°
2026-05-05 12:54 45.63200 -57.05267 34994 ft 533 kts 72°
2026-05-05 12:55 45.65203 -56.95062 35006 ft 534 kts 72°
2026-05-05 12:55 45.67201 -56.84833 34993 ft 535 kts 73°
2026-05-05 12:56 45.69191 -56.74582 34993 ft 535 kts 73°
2026-05-05 12:56 45.71175 -56.64314 34995 ft 535 kts 73°
2026-05-05 12:57 45.73149 -56.54036 35005 ft 536 kts 73°
2026-05-05 12:57 45.75117 -56.43741 34996 ft 536 kts 73°
2026-05-05 12:58 45.77078 -56.33424 34986 ft 537 kts 73°
2026-05-05 12:58 45.79027 -56.23114 34990 ft 536 kts 73°
2026-05-05 12:59 45.80967 -56.12793 34990 ft 536 kts 73°
2026-05-05 12:59 45.82898 -56.02468 34991 ft 536 kts 73°
2026-05-05 13:00 45.85761 -55.87047 34992 ft 536 kts 73°
2026-05-05 13:01 45.89564 -55.66371 34980 ft 536 kts 74°
2026-05-05 13:01 45.91453 -55.56017 34995 ft 536 kts 74°
2026-05-05 13:02 45.93333 -55.45647 34987 ft 537 kts 74°
2026-05-05 13:02 45.95206 -55.35261 34994 ft 537 kts 75°
2026-05-05 13:03 45.97070 -55.24861 34988 ft 537 kts 75°
2026-05-05 13:03 45.98926 -55.14449 35011 ft 538 kts 75°
2026-05-05 13:04 46.00775 -55.04015 34993 ft 538 kts 75°
2026-05-05 13:04 46.02615 -54.93572 34994 ft 539 kts 75°
2026-05-05 13:05 46.04451 -54.83095 34993 ft 540 kts 75°
2026-05-05 13:05 46.06279 -54.72597 35011 ft 541 kts 75°
2026-05-05 13:06 46.08101 -54.62070 34992 ft 542 kts 75°
2026-05-05 13:06 46.09915 -54.51526 34995 ft 542 kts 76°
2026-05-05 13:07 46.11718 -54.40986 34991 ft 542 kts 76°
2026-05-05 13:07 46.13501 -54.30505 34985 ft 542 kts 76°
2026-05-05 13:08 46.15285 -54.19943 34995 ft 542 kts 76°
2026-05-05 13:08 46.17061 -54.09368 34990 ft 543 kts 76°
2026-05-05 13:09 46.18830 -53.98771 34987 ft 543 kts 76°
2026-05-05 13:09 46.20589 -53.88169 34981 ft 543 kts 77°
2026-05-05 13:10 46.22337 -53.77568 35009 ft 543 kts 77°
2026-05-05 13:10 46.24077 -53.66947 34968 ft 543 kts 77°
2026-05-05 13:11 46.25809 -53.56311 34985 ft 544 kts 77°
2026-05-05 13:11 46.27532 -53.45657 34974 ft 545 kts 77°
2026-05-05 13:12 46.29248 -53.34983 34979 ft 545 kts 77°
2026-05-05 13:12 46.30956 -53.24290 34989 ft 546 kts 77°
2026-05-05 13:13 46.32652 -53.13599 34978 ft 545 kts 77°
2026-05-05 13:13 46.34339 -53.02896 34962 ft 546 kts 77°
2026-05-05 13:14 46.36022 -52.92154 34987 ft 549 kts 77°
2026-05-05 13:14 46.37704 -52.81343 34989 ft 552 kts 78°
2026-05-05 13:15 46.39384 -52.70473 34987 ft 554 kts 78°
2026-05-05 13:15 46.41056 -52.59577 34977 ft 554 kts 78°
2026-05-05 13:16 46.42717 -52.48686 34988 ft 554 kts 78°
2026-05-05 13:16 46.44366 -52.37794 34988 ft 553 kts 78°
2026-05-05 13:17 46.46003 -52.26907 34994 ft 553 kts 78°
2026-05-05 13:17 46.47630 -52.16013 34995 ft 552 kts 78°
2026-05-05 13:18 46.49245 -52.05128 34996 ft 552 kts 78°
2026-05-05 13:18 46.51315 -51.94421 34998 ft 551 kts 69°
2026-05-05 13:19 46.53593 -51.85780 35004 ft 551 kts 68°
2026-05-05 13:19 46.56809 -51.73712 34995 ft 551 kts 68°
2026-05-05 13:20 46.59082 -51.64987 34985 ft 551 kts 69°
2026-05-05 13:20 46.61759 -51.54552 34999 ft 550 kts 69°
2026-05-05 13:21 46.64418 -51.44114 34996 ft 550 kts 69°
2026-05-05 13:21 46.67074 -51.33660 35001 ft 551 kts 69°
2026-05-05 13:22 46.69723 -51.23194 35010 ft 551 kts 69°
2026-05-05 13:22 46.72363 -51.12719 35013 ft 551 kts 70°
2026-05-05 13:23 46.74992 -51.02239 34999 ft 550 kts 70°
2026-05-05 13:23 46.77609 -50.91753 35003 ft 550 kts 70°
2026-05-05 13:24 46.80199 -50.81333 35014 ft 550 kts 70°
2026-05-05 13:24 46.82796 -50.70831 35014 ft 550 kts 70°
2026-05-05 13:25 46.85384 -50.60321 35015 ft 550 kts 71°
2026-05-05 13:25 46.87963 -50.49796 35008 ft 550 kts 71°
2026-05-05 13:26 46.90535 -50.39250 35017 ft 550 kts 71°
2026-05-05 13:26 46.93096 -50.28701 35014 ft 551 kts 71°
2026-05-05 13:27 46.95650 -50.18129 35015 ft 551 kts 71°
2026-05-05 13:27 46.98192 -50.07556 35011 ft 551 kts 71°
2026-05-05 13:28 47.00735 -49.96973 35015 ft 550 kts 71°
2026-05-05 13:28 47.03368 -49.86439 34987 ft 551 kts 70°
2026-05-05 13:29 47.06042 -49.75889 35017 ft 553 kts 70°
2026-05-05 13:29 47.08703 -49.65291 35025 ft 555 kts 71°
2026-05-05 13:30 47.11351 -49.54633 35022 ft 556 kts 71°
2026-05-05 13:30 47.13989 -49.43941 35027 ft 557 kts 71°
2026-05-05 13:31 47.16619 -49.33234 35018 ft 557 kts 71°
2026-05-05 13:31 47.19238 -49.22524 35016 ft 556 kts 71°
2026-05-05 13:32 47.21842 -49.11832 35024 ft 555 kts 71°
2026-05-05 13:32 47.24432 -49.01141 35022 ft 554 kts 71°
2026-05-05 13:33 47.27007 -48.90460 35019 ft 553 kts 71°
2026-05-05 13:33 47.29570 -48.79778 35022 ft 553 kts 71°
2026-05-05 13:34 47.32120 -48.69097 35030 ft 553 kts 72°
2026-05-05 13:34 47.34660 -48.58408 35027 ft 553 kts 72°
2026-05-05 13:35 47.37192 -48.47703 35027 ft 553 kts 72°
2026-05-05 13:35 47.39711 -48.36995 35033 ft 553 kts 72°
2026-05-05 13:36 47.42222 -48.26272 35041 ft 552 kts 72°
2026-05-05 13:36 47.44723 -48.15540 35030 ft 552 kts 72°
2026-05-05 13:37 47.47195 -48.04875 35030 ft 552 kts 72°
2026-05-05 13:37 47.49673 -47.94134 35031 ft 552 kts 72°
2026-05-05 13:38 47.52143 -47.83374 35047 ft 553 kts 72°
2026-05-05 13:38 47.54608 -47.72583 35038 ft 554 kts 73°
2026-05-05 13:39 47.57063 -47.61777 35047 ft 554 kts 73°
2026-05-05 13:39 47.59510 -47.50956 35048 ft 554 kts 73°
2026-05-05 13:40 47.61947 -47.40121 35048 ft 554 kts 73°
2026-05-05 13:40 47.64374 -47.29278 35044 ft 554 kts 73°
2026-05-05 13:41 47.66787 -47.18437 35056 ft 553 kts 73°
2026-05-05 13:41 47.69189 -47.07594 35054 ft 553 kts 73°
2026-05-05 13:42 47.71577 -46.96756 35053 ft 552 kts 74°
2026-05-05 13:42 47.73956 -46.85905 35063 ft 553 kts 74°
2026-05-05 13:43 47.76327 -46.75031 35067 ft 554 kts 74°
2026-05-05 13:43 47.78690 -46.64137 35067 ft 554 kts 74°
2026-05-05 13:44 47.81046 -46.53218 35066 ft 554 kts 74°
2026-05-05 13:44 47.83372 -46.42382 35072 ft 553 kts 74°
2026-05-05 13:45 47.85702 -46.31471 35075 ft 553 kts 75°
2026-05-05 13:45 47.88017 -46.20568 35071 ft 552 kts 75°
2026-05-05 13:46 47.90319 -46.09670 35071 ft 551 kts 75°
2026-05-05 13:46 47.92608 -45.98774 35078 ft 551 kts 75°
2026-05-05 13:47 47.94891 -45.87850 35082 ft 553 kts 75°
2026-05-05 13:47 47.97172 -45.76872 35088 ft 555 kts 75°
2026-05-05 13:48 47.99448 -45.65860 35095 ft 556 kts 75°
2026-05-05 13:48 48.01718 -45.54819 35088 ft 556 kts 75°
2026-05-05 13:49 48.03977 -45.43767 35087 ft 556 kts 76°
2026-05-05 13:49 48.06222 -45.32726 35091 ft 555 kts 76°
2026-05-05 13:50 48.08453 -45.21691 35098 ft 554 kts 76°
2026-05-05 13:50 48.10668 -45.10669 35099 ft 553 kts 76°
2026-05-05 13:51 48.12870 -44.99652 35094 ft 553 kts 76°
2026-05-05 13:51 48.15065 -44.88605 35104 ft 554 kts 76°
2026-05-05 13:52 48.17239 -44.77604 35117 ft 555 kts 76°
2026-05-05 13:52 48.19422 -44.66494 35114 ft 556 kts 76°
2026-05-05 13:53 48.21598 -44.55358 35114 ft 557 kts 76°
2026-05-05 13:53 48.23763 -44.44214 35125 ft 556 kts 76°
2026-05-05 13:54 48.25914 -44.33074 35122 ft 555 kts 76°
2026-05-05 13:54 48.28050 -44.21952 35121 ft 554 kts 77°
2026-05-05 13:55 48.30169 -44.10848 35126 ft 553 kts 77°
2026-05-05 13:55 48.32275 -43.99749 35114 ft 552 kts 77°
2026-05-05 13:56 48.34368 -43.88653 35135 ft 553 kts 77°
2026-05-05 13:56 48.36456 -43.77511 35141 ft 554 kts 77°
2026-05-05 13:57 48.38540 -43.66332 35129 ft 556 kts 77°
2026-05-05 13:57 48.40600 -43.55214 35148 ft 555 kts 77°
2026-05-05 13:58 48.42662 -43.44015 35140 ft 555 kts 77°
2026-05-05 13:58 48.44714 -43.32809 35140 ft 554 kts 77°
2026-05-05 13:59 48.47763 -43.16023 35147 ft 553 kts 77°
2026-05-05 14:00 48.50444 -43.01130 35105 ft 553 kts 77°
2026-05-05 14:00 48.52786 -42.88021 35151 ft 555 kts 77°
2026-05-05 14:01 48.54787 -42.76742 35154 ft 558 kts 77°
2026-05-05 14:01 48.56784 -42.65417 35158 ft 559 kts 77°
2026-05-05 14:02 48.58773 -42.54070 35157 ft 559 kts 78°
2026-05-05 14:02 48.60750 -42.42717 35156 ft 558 kts 78°
2026-05-05 14:03 48.62712 -42.31377 35153 ft 557 kts 78°
2026-05-05 14:03 48.64657 -42.20058 35159 ft 555 kts 78°
2026-05-05 14:04 48.66586 -42.08762 35162 ft 554 kts 78°
2026-05-05 14:04 48.68499 -41.97484 35136 ft 553 kts 78°
2026-05-05 14:05 48.70389 -41.86270 35161 ft 554 kts 78°
2026-05-05 14:05 48.72282 -41.74964 35172 ft 555 kts 78°
2026-05-05 14:06 48.74171 -41.63605 35168 ft 556 kts 78°
2026-05-05 14:06 48.76052 -41.52221 35175 ft 557 kts 78°
2026-05-05 14:07 48.77924 -41.40817 35168 ft 557 kts 78°
2026-05-05 14:07 48.79783 -41.29417 35171 ft 556 kts 78°
2026-05-05 14:08 48.81626 -41.18038 35170 ft 555 kts 78°
2026-05-05 14:08 48.83148 -41.08580 35173 ft 554 kts 79°
2026-05-05 14:09 48.84963 -40.97224 35169 ft 553 kts 79°
2026-05-05 14:09 48.86767 -40.85864 35160 ft 554 kts 79°
2026-05-05 14:10 48.88564 -40.74463 35179 ft 557 kts 79°
2026-05-05 14:10 48.90361 -40.62987 35188 ft 560 kts 79°
2026-05-05 14:11 48.92154 -40.51456 35180 ft 561 kts 79°
2026-05-05 14:11 48.93939 -40.39897 35175 ft 561 kts 79°
2026-05-05 14:12 48.95711 -40.28338 35182 ft 560 kts 79°
2026-05-05 14:12 48.97466 -40.16806 35177 ft 559 kts 79°
2026-05-05 14:13 48.99206 -40.05295 35179 ft 557 kts 79°
2026-05-05 14:13 49.01379 -39.93981 35182 ft 557 kts 70°
2026-05-05 14:14 49.04185 -39.82987 35182 ft 556 kts 69°
2026-05-05 14:14 49.06994 -39.72074 35145 ft 557 kts 70°
2026-05-05 14:15 49.09781 -39.61013 35186 ft 560 kts 70°
2026-05-05 14:15 49.12541 -39.49877 35185 ft 562 kts 70°
2026-05-05 14:16 49.15296 -39.38676 35179 ft 564 kts 70°
2026-05-05 14:16 49.18052 -39.27434 35174 ft 565 kts 70°
2026-05-05 14:17 49.20793 -39.16206 35173 ft 563 kts 70°
2026-05-05 14:17 49.23519 -39.04985 35167 ft 562 kts 70°
2026-05-05 14:18 49.26226 -38.93789 35168 ft 560 kts 71°
2026-05-05 14:18 49.28915 -38.82605 35169 ft 559 kts 71°
2026-05-05 14:19 49.31590 -38.71420 35167 ft 559 kts 71°
2026-05-05 14:19 49.34252 -38.60234 35168 ft 559 kts 71°
2026-05-05 14:20 49.36886 -38.49108 35171 ft 559 kts 71°
2026-05-05 14:20 49.39529 -38.37890 35164 ft 559 kts 71°
2026-05-05 14:21 49.42161 -38.26656 35173 ft 559 kts 71°
2026-05-05 14:21 49.44784 -38.15404 35170 ft 560 kts 71°
2026-05-05 14:22 49.47400 -38.04123 35167 ft 560 kts 71°
2026-05-05 14:22 49.50001 -37.92848 35169 ft 559 kts 71°
2026-05-05 14:23 49.52589 -37.81573 35162 ft 558 kts 71°
2026-05-05 14:23 49.55158 -37.70316 35161 ft 557 kts 71°
2026-05-05 14:24 49.57711 -37.59068 35156 ft 556 kts 71°
2026-05-05 14:24 49.60250 -37.47826 35162 ft 555 kts 71°
2026-05-05 14:25 49.62774 -37.36593 35158 ft 554 kts 72°
2026-05-05 14:25 49.65283 -37.25363 35159 ft 554 kts 72°
2026-05-05 14:26 49.67780 -37.14124 35165 ft 553 kts 72°
2026-05-05 14:26 49.70263 -37.02892 35158 ft 552 kts 72°
2026-05-05 14:27 49.72731 -36.91668 35156 ft 551 kts 72°
2026-05-05 14:27 49.75185 -36.80444 35160 ft 551 kts 72°
2026-05-05 14:28 49.77627 -36.69215 35154 ft 550 kts 72°
2026-05-05 14:28 49.80050 -36.58014 35158 ft 549 kts 72°
2026-05-05 14:29 49.82463 -36.46796 35156 ft 548 kts 72°
2026-05-05 14:29 49.84862 -36.35581 35150 ft 548 kts 72°
2026-05-05 14:30 49.87244 -36.24386 35156 ft 546 kts 72°
2026-05-05 14:30 49.89610 -36.13203 35132 ft 546 kts 72°
2026-05-05 14:31 49.91953 -36.02071 35146 ft 547 kts 72°
2026-05-05 14:31 49.94323 -35.90744 35154 ft 549 kts 72°
2026-05-05 14:32 49.96653 -35.79547 35135 ft 548 kts 72°
2026-05-05 14:32 49.98982 -35.68289 35143 ft 547 kts 72°
2026-05-05 14:33 50.01295 -35.57050 35134 ft 545 kts 72°
2026-05-05 14:33 50.03589 -35.45833 35139 ft 543 kts 72°
2026-05-05 14:34 50.05865 -35.34646 35127 ft 541 kts 72°
2026-05-05 14:34 50.08123 -35.23486 35133 ft 540 kts 72°
2026-05-05 14:35 50.10363 -35.12346 35134 ft 539 kts 73°
2026-05-05 14:35 50.12591 -35.01207 35137 ft 538 kts 73°
2026-05-05 14:36 50.14803 -34.90082 35128 ft 537 kts 73°
2026-05-05 14:36 50.17000 -34.78969 35134 ft 536 kts 73°
2026-05-05 14:37 50.19184 -34.67861 35133 ft 535 kts 73°
2026-05-05 14:37 50.21356 -34.56746 35135 ft 535 kts 73°
2026-05-05 14:38 50.23518 -34.45623 35136 ft 535 kts 73°
2026-05-05 14:38 50.25669 -34.34485 35133 ft 536 kts 73°
2026-05-05 14:39 50.27814 -34.23319 35124 ft 536 kts 73°
2026-05-05 14:39 50.29949 -34.12135 35139 ft 537 kts 73°
2026-05-05 14:40 50.32072 -34.00946 35141 ft 536 kts 73°
2026-05-05 14:40 50.34182 -33.89762 35147 ft 535 kts 73°
2026-05-05 14:41 50.36265 -33.78659 35151 ft 535 kts 73°
2026-05-05 14:41 50.38344 -33.67503 35151 ft 532 kts 73°
2026-05-05 14:42 50.40401 -33.56404 35145 ft 528 kts 73°
2026-05-05 14:42 50.42431 -33.45384 35157 ft 525 kts 73°
2026-05-05 14:43 50.44442 -33.34399 35159 ft 523 kts 73°
2026-05-05 14:43 50.46438 -33.23435 35174 ft 522 kts 74°
2026-05-05 14:44 50.48415 -33.12504 35167 ft 520 kts 74°
2026-05-05 14:44 50.50378 -33.01592 35172 ft 518 kts 74°
2026-05-05 14:45 50.52325 -32.90695 35179 ft 518 kts 74°
2026-05-05 14:45 50.54260 -32.79807 35189 ft 516 kts 74°
2026-05-05 14:46 50.56178 -32.68945 35179 ft 515 kts 75°
2026-05-05 14:46 50.58079 -32.58114 35184 ft 513 kts 75°
2026-05-05 14:47 50.59964 -32.47311 35189 ft 512 kts 75°
2026-05-05 14:47 50.61837 -32.36508 35190 ft 510 kts 75°
2026-05-05 14:48 50.63693 -32.25734 35194 ft 509 kts 75°
2026-05-05 14:48 50.65536 -32.14976 35193 ft 509 kts 75°
2026-05-05 14:49 50.67356 -32.04286 35206 ft 508 kts 75°
2026-05-05 14:49 50.69190 -31.93445 35215 ft 508 kts 75°
2026-05-05 14:50 50.70999 -31.82681 35207 ft 506 kts 75°
2026-05-05 14:50 50.72778 -31.72036 35203 ft 504 kts 75°
2026-05-05 14:51 50.74553 -31.61344 35208 ft 503 kts 75°
2026-05-05 14:51 50.76314 -31.50671 35213 ft 502 kts 75°
2026-05-05 14:52 50.78063 -31.39995 35222 ft 503 kts 75°
2026-05-05 14:52 50.79808 -31.29290 35226 ft 503 kts 75°
2026-05-05 14:53 50.81547 -31.18550 35226 ft 505 kts 75°
2026-05-05 14:53 50.83278 -31.07784 35225 ft 505 kts 75°
2026-05-05 14:54 50.85002 -30.96998 35232 ft 506 kts 75°
2026-05-05 14:54 50.86717 -30.86192 35229 ft 506 kts 75°
2026-05-05 14:55 50.88413 -30.75443 35235 ft 506 kts 75°
2026-05-05 14:55 50.90108 -30.64624 35234 ft 506 kts 75°
2026-05-05 14:56 50.91792 -30.53799 35243 ft 506 kts 74°
2026-05-05 14:56 50.93466 -30.42973 35237 ft 506 kts 74°
2026-05-05 14:57 50.95132 -30.32128 35238 ft 507 kts 74°
2026-05-05 14:57 50.96790 -30.21260 35243 ft 507 kts 74°
2026-05-05 14:58 50.98162 -30.12214 35242 ft 508 kts 74°
2026-05-05 14:58 50.99828 -30.01321 35244 ft 507 kts 72°
2026-05-05 14:59 51.02198 -29.90820 35254 ft 505 kts 65°
2026-05-05 14:59 51.04854 -29.80492 35249 ft 505 kts 65°
2026-05-05 15:00 51.07495 -29.70136 35260 ft 505 kts 65°
2026-05-05 15:00 51.10095 -29.59752 35258 ft 505 kts 65°
2026-05-05 15:01 51.12671 -29.49352 35256 ft 505 kts 65°
2026-05-05 15:01 51.15234 -29.38945 35250 ft 504 kts 65°
2026-05-05 15:02 51.17787 -29.28542 35249 ft 504 kts 65°
2026-05-05 15:02 51.20329 -29.18137 35260 ft 504 kts 64°
2026-05-05 15:03 51.22863 -29.07720 35241 ft 503 kts 64°
2026-05-05 15:03 51.25368 -28.97371 35261 ft 503 kts 64°
2026-05-05 15:04 51.27880 -28.86946 35253 ft 503 kts 64°
2026-05-05 15:04 51.30382 -28.76509 35257 ft 503 kts 64°
2026-05-05 15:05 51.34123 -28.60814 35251 ft 504 kts 64°
2026-05-05 15:06 51.36606 -28.50331 35249 ft 504 kts 64°
2026-05-05 15:06 51.39080 -28.39834 35298 ft 504 kts 63°
2026-05-05 15:07 51.41550 -28.29307 35258 ft 505 kts 63°
2026-05-05 15:07 51.44010 -28.18770 35253 ft 505 kts 63°
2026-05-05 15:08 51.46458 -28.08233 35249 ft 504 kts 63°
2026-05-05 15:08 51.48896 -27.97684 35297 ft 504 kts 64°
2026-05-05 15:09 51.51326 -27.87122 35262 ft 505 kts 64°
2026-05-05 15:09 51.53744 -27.76551 35245 ft 504 kts 64°
2026-05-05 15:10 51.56152 -27.65977 35264 ft 504 kts 64°
2026-05-05 15:10 51.58551 -27.55390 35255 ft 504 kts 64°
2026-05-05 15:11 51.60942 -27.44788 35267 ft 504 kts 64°
2026-05-05 15:11 51.63317 -27.34194 35259 ft 503 kts 64°
2026-05-05 15:12 51.65661 -27.23687 35256 ft 502 kts 64°
2026-05-05 15:12 51.68011 -27.13107 35249 ft 501 kts 65°
2026-05-05 15:13 51.70347 -27.02535 35258 ft 501 kts 65°
2026-05-05 15:13 51.72672 -26.91958 35258 ft 500 kts 65°
2026-05-05 15:14 51.74980 -26.81401 35261 ft 499 kts 65°
2026-05-05 15:14 51.77278 -26.70840 35261 ft 499 kts 65°
2026-05-05 15:15 51.79567 -26.60268 35267 ft 499 kts 66°
2026-05-05 15:15 51.81848 -26.49676 35265 ft 499 kts 66°
2026-05-05 15:16 51.84115 -26.39088 35265 ft 498 kts 66°
2026-05-05 15:16 51.86373 -26.28495 35265 ft 498 kts 66°
2026-05-05 15:17 51.88622 -26.17887 35290 ft 498 kts 66°
2026-05-05 15:17 51.90861 -26.07269 35268 ft 498 kts 66°
2026-05-05 15:18 51.93090 -25.96643 35257 ft 498 kts 66°
2026-05-05 15:18 51.95290 -25.86099 35264 ft 497 kts 66°
2026-05-05 15:19 51.97497 -25.75466 35262 ft 497 kts 67°
2026-05-05 15:19 51.99693 -25.64831 35262 ft 497 kts 67°
2026-05-05 15:20 52.01880 -25.54181 35265 ft 497 kts 67°
2026-05-05 15:20 52.04058 -25.43517 35263 ft 498 kts 67°
2026-05-05 15:21 52.06227 -25.32840 35278 ft 498 kts 67°
2026-05-05 15:21 52.08390 -25.22137 35271 ft 499 kts 68°
2026-05-05 15:22 52.10542 -25.11424 35261 ft 498 kts 68°
2026-05-05 15:22 52.12686 -25.00697 35259 ft 498 kts 68°
2026-05-05 15:23 52.14817 -24.89974 35260 ft 498 kts 68°
2026-05-05 15:23 52.16938 -24.79242 35268 ft 498 kts 68°
2026-05-05 15:24 52.19052 -24.68489 35262 ft 498 kts 68°
2026-05-05 15:24 52.21155 -24.57733 35263 ft 498 kts 68°
2026-05-05 15:25 52.23247 -24.46966 35256 ft 498 kts 69°
2026-05-05 15:25 52.25330 -24.36190 35273 ft 498 kts 69°
2026-05-05 15:26 52.27405 -24.25393 35254 ft 498 kts 69°
2026-05-05 15:26 52.29470 -24.14590 35265 ft 498 kts 69°
2026-05-05 15:27 52.31526 -24.03769 35248 ft 498 kts 69°
2026-05-05 15:27 52.33572 -23.92938 35262 ft 499 kts 70°
2026-05-05 15:28 52.35609 -23.82092 35250 ft 499 kts 70°
2026-05-05 15:28 52.37636 -23.71238 35250 ft 499 kts 70°
2026-05-05 15:29 52.39641 -23.60436 35243 ft 499 kts 70°
2026-05-05 15:29 52.41651 -23.49546 35243 ft 500 kts 70°
2026-05-05 15:30 52.43653 -23.38634 35249 ft 500 kts 70°
2026-05-05 15:30 52.45646 -23.27709 35243 ft 500 kts 70°
2026-05-05 15:31 52.47628 -23.16776 35241 ft 500 kts 70°
2026-05-05 15:31 52.49600 -23.05833 35238 ft 500 kts 70°
2026-05-05 15:32 52.51563 -22.94876 35250 ft 500 kts 71°
2026-05-05 15:32 52.53516 -22.83910 35235 ft 500 kts 71°
2026-05-05 15:33 52.55459 -22.72931 35234 ft 500 kts 71°
2026-05-05 15:33 52.57390 -22.61951 35236 ft 500 kts 71°
2026-05-05 15:34 52.59312 -22.50957 35242 ft 500 kts 71°
2026-05-05 15:34 52.61224 -22.39952 35231 ft 500 kts 71°
2026-05-05 15:35 52.63126 -22.28937 35230 ft 501 kts 71°
2026-05-05 15:35 52.65021 -22.17897 35220 ft 501 kts 72°
2026-05-05 15:36 52.66905 -22.06848 35246 ft 501 kts 72°
2026-05-05 15:36 52.68783 -21.95764 35230 ft 503 kts 72°
2026-05-05 15:37 52.70653 -21.84651 35223 ft 503 kts 72°
2026-05-05 15:37 52.72515 -21.73523 35222 ft 504 kts 72°
2026-05-05 15:38 52.74355 -21.62450 35218 ft 504 kts 72°
2026-05-05 15:38 52.76197 -21.51293 35222 ft 504 kts 72°
2026-05-05 15:39 52.78031 -21.40113 35216 ft 504 kts 72°
2026-05-05 15:39 52.79855 -21.28919 35216 ft 504 kts 73°
2026-05-05 15:40 52.81667 -21.17725 35216 ft 504 kts 73°
2026-05-05 15:40 52.83470 -21.06514 35213 ft 504 kts 73°
2026-05-05 15:41 52.85261 -20.95303 35214 ft 504 kts 73°
2026-05-05 15:41 52.87041 -20.84086 35213 ft 504 kts 73°
2026-05-05 15:42 52.88810 -20.72859 35213 ft 504 kts 73°
2026-05-05 15:42 52.90569 -20.61624 35215 ft 504 kts 73°
2026-05-05 15:43 52.92317 -20.50378 35211 ft 504 kts 73°
2026-05-05 15:43 52.94056 -20.39114 35209 ft 505 kts 73°
2026-05-05 15:44 52.95784 -20.27837 35209 ft 505 kts 73°
2026-05-05 15:44 52.97503 -20.16550 35201 ft 505 kts 74°
2026-05-05 15:45 52.99212 -20.05240 35208 ft 506 kts 75°
2026-05-05 15:45 53.00246 -19.93686 35200 ft 508 kts 86°
2026-05-05 15:46 53.00439 -19.81955 35202 ft 508 kts 88°
2026-05-05 15:46 53.00571 -19.72199 35202 ft 509 kts 87°
2026-05-05 15:47 53.00754 -19.60452 35205 ft 509 kts 87°
2026-05-05 15:47 53.00984 -19.46808 35195 ft 508 kts 87°
2026-05-05 15:48 53.01146 -19.36977 35187 ft 508 kts 88°
2026-05-05 15:48 53.01326 -19.25271 35188 ft 507 kts 88°
2026-05-05 15:49 53.01492 -19.13647 35188 ft 507 kts 88°
2026-05-05 15:49 53.01647 -19.01952 35190 ft 507 kts 88°
2026-05-05 15:50 53.01791 -18.90248 35184 ft 507 kts 88°
2026-05-05 15:50 53.01923 -18.78544 35182 ft 507 kts 88°
2026-05-05 15:51 53.02043 -18.66840 35172 ft 507 kts 88°
2026-05-05 15:51 53.02153 -18.55123 35185 ft 508 kts 89°
2026-05-05 15:52 53.02250 -18.43386 35182 ft 509 kts 89°
2026-05-05 15:52 53.02337 -18.31617 35173 ft 510 kts 89°
2026-05-05 15:53 53.02412 -18.19829 35176 ft 510 kts 89°
2026-05-05 15:53 53.02475 -18.08035 35175 ft 511 kts 89°
2026-05-05 15:54 53.02527 -17.96241 35179 ft 511 kts 89°
2026-05-05 15:54 53.02567 -17.84450 35170 ft 510 kts 89°
2026-05-05 15:55 53.02595 -17.72675 35165 ft 510 kts 89°
2026-05-05 15:55 53.02612 -17.60912 35169 ft 509 kts 89°
2026-05-05 15:56 53.02617 -17.49160 35170 ft 509 kts 90°
2026-05-05 15:56 53.02611 -17.37416 35167 ft 508 kts 90°
2026-05-05 15:57 53.02593 -17.25764 35159 ft 508 kts 90°
2026-05-05 15:57 53.02563 -17.14027 35162 ft 508 kts 90°
2026-05-05 15:58 53.02522 -17.02299 35161 ft 508 kts 90°
2026-05-05 15:58 53.02470 -16.90571 35156 ft 508 kts 90°
2026-05-05 15:59 53.02405 -16.78837 35161 ft 508 kts 90°
2026-05-05 15:59 53.02330 -16.67094 35157 ft 508 kts 90°
2026-05-05 16:00 53.02242 -16.55350 35157 ft 509 kts 90°
2026-05-05 16:00 53.02144 -16.43608 35166 ft 509 kts 91°
2026-05-05 16:01 53.02033 -16.31853 35159 ft 509 kts 91°
2026-05-05 16:01 53.01911 -16.20095 35153 ft 509 kts 91°
2026-05-05 16:02 53.01777 -16.08354 35155 ft 508 kts 91°
2026-05-05 16:02 53.01632 -15.96619 35152 ft 508 kts 91°
2026-05-05 16:03 53.01476 -15.84888 35152 ft 508 kts 91°
2026-05-05 16:03 53.01308 -15.73162 35144 ft 508 kts 91°
2026-05-05 16:04 53.01128 -15.61442 35147 ft 508 kts 91°
2026-05-05 16:04 53.00937 -15.49721 35145 ft 508 kts 91°
2026-05-05 16:05 53.00736 -15.38070 35147 ft 508 kts 91°
2026-05-05 16:05 53.00522 -15.26344 35138 ft 508 kts 92°
2026-05-05 16:06 53.00295 -15.14556 35146 ft 507 kts 92°
2026-05-05 16:06 53.00060 -15.02849 35145 ft 507 kts 92°
2026-05-05 16:07 52.99930 -14.91223 35142 ft 507 kts 89°
2026-05-05 16:07 53.00014 -14.79525 35143 ft 507 kts 89°
2026-05-05 16:08 53.00087 -14.67821 35141 ft 507 kts 89°
2026-05-05 16:08 53.00108 -14.56117 35139 ft 507 kts 90°
2026-05-05 16:09 53.00104 -14.44414 35137 ft 507 kts 90°
2026-05-05 16:09 53.00091 -14.32730 35141 ft 507 kts 90°
2026-05-05 16:10 53.00068 -14.21019 35132 ft 507 kts 90°
2026-05-05 16:10 53.00036 -14.09319 35133 ft 507 kts 90°
2026-05-05 16:11 53.00170 -13.97622 35132 ft 507 kts 84°
2026-05-05 16:12 53.02303 -13.74534 35126 ft 506 kts 80°
2026-05-05 16:13 53.04921 -13.45722 35124 ft 506 kts 81°
2026-05-05 16:13 53.05933 -13.34155 35123 ft 506 kts 81°
2026-05-05 16:14 53.07927 -13.11023 35120 ft 505 kts 81°
2026-05-05 16:15 53.09876 -12.87881 35118 ft 505 kts 81°
2026-05-05 16:16 53.11781 -12.64722 35117 ft 505 kts 82°
2026-05-05 16:17 53.13177 -12.47363 35110 ft 504 kts 82°
2026-05-05 16:18 53.14549 -12.29991 35110 ft 504 kts 82°
2026-05-05 16:19 53.15895 -12.12614 35106 ft 504 kts 82°
2026-05-05 16:19 53.17215 -11.95230 35098 ft 504 kts 82°
2026-05-05 16:20 53.18936 -11.72035 35109 ft 504 kts 82°
2026-05-05 16:22 53.21017 -11.43118 35092 ft 503 kts 83°
2026-05-05 16:23 53.22634 -11.19916 35094 ft 503 kts 83°
2026-05-05 16:23 53.23817 -11.02518 35083 ft 503 kts 83°
2026-05-05 16:24 53.24591 -10.90911 35089 ft 503 kts 83°
2026-05-05 16:25 53.25731 -10.73494 35076 ft 503 kts 83°
2026-05-05 16:25 53.26844 -10.56099 35070 ft 502 kts 83°
2026-05-05 16:26 53.28288 -10.32909 35077 ft 502 kts 83°
2026-05-05 16:27 53.28993 -10.21310 35069 ft 502 kts 83°
2026-05-05 16:27 53.29681 -10.09792 35062 ft 502 kts 83°
2026-05-05 16:28 53.30364 -9.98189 35061 ft 502 kts 83°
2026-05-05 16:28 53.31035 -9.86574 35051 ft 502 kts 84°
2026-05-05 16:29 53.31695 -9.74960 35058 ft 502 kts 84°
2026-05-05 16:29 53.32344 -9.63335 35045 ft 502 kts 84°
2026-05-05 16:30 53.32981 -9.51724 35045 ft 502 kts 84°
2026-05-05 16:30 53.33607 -9.40096 35051 ft 502 kts 84°
2026-05-05 16:31 53.34221 -9.28470 35043 ft 502 kts 84°
2026-05-05 16:31 53.34825 -9.16846 35040 ft 501 kts 84°
2026-05-05 16:32 53.35416 -9.05217 35047 ft 501 kts 84°
2026-05-05 16:32 53.35996 -8.93591 35044 ft 501 kts 85°
2026-05-05 16:33 53.36565 -8.81958 35038 ft 501 kts 85°
2026-05-05 16:33 53.37120 -8.70404 35036 ft 501 kts 85°
2026-05-05 16:34 53.37666 -8.58769 35028 ft 502 kts 85°
2026-05-05 16:34 53.38202 -8.47114 35028 ft 502 kts 85°
2026-05-05 16:35 53.38726 -8.35460 35024 ft 502 kts 85°
2026-05-05 16:35 53.39239 -8.23798 35024 ft 502 kts 85°
2026-05-05 16:36 53.39740 -8.12150 35020 ft 502 kts 85°
2026-05-05 16:36 53.40230 -8.00495 35015 ft 501 kts 86°
2026-05-05 16:37 53.40628 -7.90816 35018 ft 501 kts 86°
2026-05-05 16:37 53.41097 -7.79172 35015 ft 501 kts 86°
2026-05-05 16:38 53.41554 -7.67523 35019 ft 500 kts 86°
2026-05-05 16:38 53.41999 -7.55886 35014 ft 500 kts 86°
2026-05-05 16:39 53.42433 -7.44253 35015 ft 500 kts 86°
2026-05-05 16:39 53.42855 -7.32628 35010 ft 500 kts 86°
2026-05-05 16:40 53.43266 -7.20994 35018 ft 500 kts 86°
2026-05-05 16:40 53.43666 -7.09373 35015 ft 499 kts 86°
2026-05-05 16:41 53.44054 -6.97736 35015 ft 499 kts 86°
2026-05-05 16:41 53.44431 -6.86115 35017 ft 499 kts 86°
2026-05-05 16:42 53.44796 -6.74482 35009 ft 499 kts 87°
2026-05-05 16:42 53.45151 -6.62849 35013 ft 499 kts 87°
2026-05-05 16:43 53.45494 -6.51212 35010 ft 499 kts 87°
2026-05-05 16:43 53.45825 -6.39575 35015 ft 499 kts 87°
2026-05-05 16:44 53.46146 -6.27937 35014 ft 499 kts 87°
2026-05-05 16:44 53.46455 -6.16295 35025 ft 499 kts 87°
2026-05-05 16:45 53.46753 -6.04653 35012 ft 499 kts 87°
2026-05-05 16:45 53.47039 -5.93020 35009 ft 499 kts 88°
2026-05-05 16:46 53.47314 -5.81393 35006 ft 498 kts 88°
2026-05-05 16:46 53.47577 -5.69761 35006 ft 498 kts 88°
2026-05-05 16:47 53.47829 -5.58222 35007 ft 498 kts 88°
2026-05-05 16:47 53.47967 -5.46596 35000 ft 498 kts 92°
2026-05-05 16:48 53.47638 -5.34981 35010 ft 498 kts 93°
2026-05-05 16:48 53.47290 -5.23361 35006 ft 498 kts 92°
2026-05-05 16:49 53.46962 -5.11745 35003 ft 498 kts 93°
2026-05-05 16:49 53.46581 -5.00126 35001 ft 499 kts 94°
2026-05-05 16:50 53.46191 -4.88503 34998 ft 499 kts 94°
2026-05-05 16:50 53.45787 -4.76888 34999 ft 499 kts 94°
2026-05-05 16:51 53.45366 -4.65269 34993 ft 499 kts 94°
2026-05-05 16:51 53.44969 -4.53651 34987 ft 499 kts 94°
2026-05-05 16:52 53.44596 -4.42017 34988 ft 499 kts 94°
2026-05-05 16:52 53.44197 -4.30392 34989 ft 499 kts 94°
2026-05-05 16:53 53.43725 -4.18768 34988 ft 500 kts 95°
2026-05-05 16:53 53.43235 -4.07146 34989 ft 499 kts 95°
2026-05-05 16:54 53.42748 -3.95555 34986 ft 498 kts 95°
2026-05-05 16:54 53.42273 -3.83993 34993 ft 496 kts 95°
2026-05-05 16:55 53.41796 -3.72449 34991 ft 496 kts 95°
2026-05-05 16:55 53.41307 -3.60931 34990 ft 495 kts 95°
2026-05-05 16:56 53.40811 -3.49437 34992 ft 494 kts 95°
2026-05-05 16:56 53.40312 -3.38027 34986 ft 494 kts 95°
2026-05-05 16:57 53.39801 -3.26557 34981 ft 493 kts 95°
2026-05-05 16:57 53.39280 -3.15109 34977 ft 493 kts 95°
2026-05-05 16:58 53.38804 -3.03629 34970 ft 494 kts 94°
2026-05-05 16:58 53.38389 -2.92156 34969 ft 494 kts 94°
2026-05-05 16:59 53.37959 -2.80669 34978 ft 494 kts 95°
2026-05-05 16:59 53.37505 -2.69178 34974 ft 495 kts 95°
2026-05-05 17:00 53.37036 -2.57688 34972 ft 494 kts 95°
2026-05-05 17:00 53.36559 -2.46229 34970 ft 493 kts 95°
2026-05-05 17:01 53.36074 -2.34792 34967 ft 492 kts 95°
2026-05-05 17:01 53.35482 -2.23413 34963 ft 490 kts 99°
2026-05-05 17:02 53.34319 -2.12202 34973 ft 489 kts 101°
2026-05-05 17:02 53.33110 -2.01008 34967 ft 489 kts 101°
2026-05-05 17:03 53.31929 -1.89806 34958 ft 489 kts 101°
2026-05-05 17:03 53.30753 -1.78627 34949 ft 488 kts 101°
2026-05-05 17:04 53.29565 -1.67437 34953 ft 488 kts 101°
2026-05-05 17:04 53.28365 -1.56266 34945 ft 489 kts 101°
2026-05-05 17:05 53.27165 -1.45185 34948 ft 487 kts 101°
2026-05-05 17:05 53.25954 -1.34076 34941 ft 486 kts 101°
2026-05-05 17:06 53.24735 -1.22990 34945 ft 485 kts 101°
2026-05-05 17:06 53.23507 -1.11922 34940 ft 485 kts 101°
2026-05-05 17:07 53.22267 -1.00849 34939 ft 486 kts 102°
2026-05-05 17:07 53.21014 -0.89743 34945 ft 488 kts 103°
2026-05-05 17:08 53.19746 -0.78609 34945 ft 489 kts 102°
2026-05-05 17:08 53.18465 -0.67450 34939 ft 490 kts 103°
2026-05-05 17:09 53.17174 -0.56300 34941 ft 490 kts 102°
2026-05-05 17:09 53.15874 -0.45162 34942 ft 489 kts 102°
2026-05-05 17:10 53.14566 -0.34046 34939 ft 489 kts 103°
2026-05-05 17:10 53.13249 -0.22950 34940 ft 488 kts 102°
2026-05-05 17:11 53.11923 -0.11868 34944 ft 488 kts 103°
2026-05-05 17:11 53.10585 -0.00782 34938 ft 488 kts 103°
2026-05-05 17:12 53.09239 0.10280 34941 ft 489 kts 103°
2026-05-05 17:12 53.07877 0.21374 34943 ft 490 kts 103°
2026-05-05 17:13 53.06503 0.32482 34942 ft 491 kts 103°
2026-05-05 17:13 53.05117 0.43600 34931 ft 491 kts 103°
2026-05-05 17:14 53.03729 0.54645 34924 ft 492 kts 104°
2026-05-05 17:14 53.02319 0.65773 34928 ft 492 kts 104°
2026-05-05 17:15 53.00898 0.76898 34928 ft 492 kts 104°
2026-05-05 17:15 52.99467 0.88018 34921 ft 493 kts 104°
2026-05-05 17:16 52.98027 0.99131 34924 ft 493 kts 104°
2026-05-05 17:16 52.96671 1.10274 34918 ft 493 kts 103°
2026-05-05 17:17 52.95401 1.21453 34921 ft 493 kts 103°
2026-05-05 17:17 52.94117 1.32628 34917 ft 493 kts 103°
2026-05-05 17:18 52.92807 1.43774 34914 ft 493 kts 103°
2026-05-05 17:18 52.91479 1.54917 34899 ft 493 kts 104°
2026-05-05 17:19 52.90140 1.66054 34917 ft 493 kts 104°
2026-05-05 17:19 52.88792 1.77182 34911 ft 493 kts 104°
2026-05-05 17:20 52.87433 1.88315 34912 ft 493 kts 104°
2026-05-05 17:20 52.86064 1.99434 34889 ft 494 kts 104°
2026-05-05 17:21 52.85363 2.05085 33867 ft 507 kts 104°
2026-05-05 17:21 52.84654 2.10779 32955 ft 504 kts 104°
2026-05-05 17:21 52.83944 2.16467 31796 ft 506 kts 104°
2026-05-05 17:22 52.82523 2.27796 30101 ft 497 kts 104°
2026-05-05 17:22 52.81821 2.33355 29309 ft 491 kts 104°
2026-05-05 17:22 52.81136 2.38761 28618 ft 484 kts 104°
2026-05-05 17:22 52.80448 2.44164 27944 ft 477 kts 104°
2026-05-05 17:23 52.79766 2.49493 27300 ft 472 kts 104°
2026-05-05 17:23 52.79088 2.54762 26636 ft 467 kts 104°
2026-05-05 17:23 52.78413 2.59972 25995 ft 462 kts 104°
2026-05-05 17:23 52.77742 2.65136 25356 ft 457 kts 104°
2026-05-05 17:24 52.77076 2.70246 24724 ft 454 kts 103°
2026-05-05 17:24 52.76407 2.75368 24112 ft 460 kts 103°
2026-05-05 17:24 52.75742 2.80446 23500 ft 448 kts 103°
2026-05-05 17:24 52.75094 2.85456 23211 ft 445 kts 103°
2026-05-05 17:25 52.74662 2.88837 23078 ft 446 kts 103°
2026-05-05 17:25 52.74237 2.92149 22900 ft 444 kts 103°
2026-05-05 17:25 52.73356 2.98763 22127 ft 437 kts 106°
2026-05-05 17:25 52.72204 3.03352 21470 ft 430 kts 121°
2026-05-05 17:26 52.70689 3.07469 20822 ft 413 kts 124°
2026-05-05 17:26 52.69164 3.11526 19962 ft 418 kts 123°
2026-05-05 17:26 52.67655 3.15623 19255 ft 418 kts 123°
2026-05-05 17:26 52.66193 3.19683 18680 ft 415 kts 121°
2026-05-05 17:27 52.64731 3.23808 18098 ft 412 kts 122°
2026-05-05 17:27 52.63299 3.27871 17440 ft 409 kts 121°
2026-05-05 17:27 52.61875 3.31914 16775 ft 407 kts 121°
2026-05-05 17:27 52.60461 3.35917 16229 ft 403 kts 121°
2026-05-05 17:28 52.59061 3.39889 15645 ft 396 kts 120°
2026-05-05 17:28 52.58046 3.44052 14855 ft 393 kts 102°
2026-05-05 17:28 52.57619 3.48492 14070 ft 396 kts 98°
2026-05-05 17:28 52.57212 3.52954 13527 ft 394 kts 99°
2026-05-05 17:29 52.56779 3.57406 13093 ft 396 kts 99°
2026-05-05 17:29 52.56323 3.61869 12729 ft 394 kts 100°
2026-05-05 17:29 52.55861 3.66266 12292 ft 388 kts 100°
2026-05-05 17:29 52.55396 3.70614 11729 ft 384 kts 100°
2026-05-05 17:30 52.54934 3.74897 11402 ft 374 kts 100°
2026-05-05 17:30 52.54308 3.78718 11257 ft 357 kts 113°
2026-05-05 17:30 52.53122 3.82197 11141 ft 343 kts 124°
2026-05-05 17:30 52.51834 3.85221 10931 ft 313 kts 126°
2026-05-05 17:31 52.50580 3.88026 10353 ft 300 kts 127°
2026-05-05 17:31 52.49364 3.90718 10157 ft 280 kts 127°
2026-05-05 17:31 52.48224 3.93230 10091 ft 269 kts 127°
2026-05-05 17:31 52.47129 3.95635 10052 ft 270 kts 127°
2026-05-05 17:32 52.45972 3.98165 9801 ft 280 kts 127°
2026-05-05 17:32 52.44808 4.00685 9648 ft 275 kts 127°
2026-05-05 17:32 52.43648 4.03171 9530 ft 276 kts 127°
2026-05-05 17:32 52.42477 4.05674 9523 ft 278 kts 127°
2026-05-05 17:33 52.41284 4.08221 9279 ft 286 kts 127°
2026-05-05 17:33 52.40079 4.10785 8562 ft 283 kts 127°
2026-05-05 17:33 52.38887 4.13310 7842 ft 278 kts 127°
2026-05-05 17:33 52.37707 4.15787 7144 ft 274 kts 127°
2026-05-05 17:34 52.36531 4.18246 6463 ft 272 kts 127°
2026-05-05 17:34 52.35369 4.20659 5744 ft 271 kts 126°
2026-05-05 17:34 52.34154 4.23095 5179 ft 280 kts 127°
2026-05-05 17:34 52.32912 4.25555 4798 ft 282 kts 126°
2026-05-05 17:35 52.31640 4.27998 4431 ft 282 kts 126°
2026-05-05 17:35 52.30360 4.30408 4084 ft 281 kts 127°
2026-05-05 17:35 52.29069 4.32844 3564 ft 286 kts 127°
2026-05-05 17:35 52.27750 4.35305 3062 ft 290 kts 127°
2026-05-05 17:36 52.26403 4.37783 2552 ft 293 kts 127°
2026-05-05 17:36 52.25061 4.40251 2301 ft 286 kts 127°
2026-05-05 17:36 52.23781 4.42591 2273 ft 263 kts 127°
2026-05-05 17:36 52.22586 4.44751 2270 ft 249 kts 128°
2026-05-05 17:37 52.21475 4.46819 2259 ft 237 kts 125°
2026-05-05 17:37 52.20414 4.48905 2300 ft 240 kts 120°
2026-05-05 17:37 52.19812 4.51383 2355 ft 236 kts 91°
2026-05-05 17:37 52.20092 4.53932 2436 ft 229 kts 61°
2026-05-05 17:38 52.21150 4.55810 2462 ft 226 kts 32°
2026-05-05 17:38 52.22524 4.56995 2532 ft 218 kts 34°
2026-05-05 17:38 52.23482 4.58842 2283 ft 214 kts 60°
2026-05-05 17:38 52.24017 4.61047 1865 ft 202 kts 65°
2026-05-05 17:39 52.24642 4.62990 1459 ft 187 kts 53°
2026-05-05 17:39 52.25355 4.64656 1160 ft 166 kts 53°
2026-05-05 17:39 52.25953 4.66077 1000 ft 138 kts 54°
2026-05-05 17:39 52.26437 4.67330 823 ft 126 kts 53°
2026-05-05 17:40 52.26899 4.68509 733 ft 122 kts 54°
2026-05-05 17:40 52.27369 4.69716 608 ft 131 kts 54°
2026-05-05 17:40 52.27841 4.70986 432 ft 131 kts 53°
2026-05-05 17:40 52.28337 4.72233 263 ft 132 kts 55°
2026-05-05 17:41 52.28821 4.73496 51 ft 131 kts 54°
2026-05-05 17:41 52.29288 4.74680 7 ft 114 kts 57°
2026-05-05 17:41 52.29643 4.75626 4 ft 86 kts 58°
2026-05-05 17:41 52.29915 4.76329 -2 ft 56 kts 57°
2026-05-05 17:42 52.30080 4.76580 2 ft 20 kts 30°
2026-05-05 17:42 52.30107 4.76605 2 ft 0 kts 29°
2026-05-05 17:43 52.30108 4.76605 2 ft 0 kts 29°
2026-05-05 17:43 52.30110 4.76607 2 ft 3 kts 29°
2026-05-05 17:44 52.30157 4.76649 3 ft 9 kts 28°
2026-05-05 17:44 52.30213 4.76697 2 ft 10 kts 27°
2026-05-05 17:44 52.30270 4.76752 2 ft 10 kts 37°
2026-05-05 17:44 52.30315 4.76833 2 ft 10 kts 53°
2026-05-05 17:45 52.30354 4.76932 2 ft 12 kts 58°
2026-05-05 17:45 52.30407 4.77070 2 ft 16 kts 58°
2026-05-05 17:45 52.30466 4.77224 2 ft 16 kts 58°
2026-05-05 17:45 52.30526 4.77377 2 ft 16 kts 58°
2026-05-05 17:46 52.30587 4.77528 2 ft 16 kts 47°
2026-05-05 17:46 52.30689 4.77590 2 ft 16 kts
2026-05-05 17:46 52.30800 4.77601 2 ft 16 kts
2026-05-05 17:46 52.30911 4.77611 2 ft 16 kts
2026-05-05 17:47 52.31022 4.77621 2 ft 16 kts
2026-05-05 17:47 52.31133 4.77632 2 ft 16 kts
2026-05-05 17:47 52.31244 4.77642 2 ft 16 kts
2026-05-05 17:47 52.31355 4.77653 3 ft 16 kts
2026-05-05 17:48 52.31463 4.77619 2 ft 16 kts 332°
2026-05-05 17:48 52.31545 4.77499 2 ft 16 kts 308°
2026-05-05 17:48 52.31576 4.77329 2 ft 16 kts 270°
2026-05-05 17:48 52.31572 4.77148 2 ft 16 kts 267°
2026-05-05 17:49 52.31566 4.76967 2 ft 16 kts 267°
2026-05-05 17:49 52.31559 4.76783 2 ft 17 kts 266°
2026-05-05 17:49 52.31552 4.76594 2 ft 13 kts 262°
2026-05-05 17:49 52.31495 4.76482 3 ft 10 kts 220°
2026-05-05 17:50 52.31464 4.76390 3 ft 7 kts 248°
2026-05-05 17:50 52.31434 4.76339 2 ft 6 kts 211°
2026-05-05 17:50 52.31397 4.76310 2 ft 4 kts 205°
2026-05-05 17:50 52.31386 4.76301 2 ft 1 kts 205°
2026-05-05 17:51 52.31381 4.76298 2 ft 0 kts 205°